This demonstration page uses our WeatherBlox Daily Observations layout. Learn more.

Left ArrowRight Arrow

39.01783, -85.05884

Hourly Observations for May 26, 2015

Temp ( °F °C ) Dew Point ( °F °C ) Humidity (%) Winds ( mph kmh ) Pressure ( in mb ) Visibility ( mi km ) Precip ( " mm )
12:37 am 00:37 Mostly Cloudy 68 20 63 17 83 83 SSW 6 9 30.09 1019 10 16 0.00 0.00
12:52 am 00:52 Mostly Cloudy 68 20 63 17.2 84 84 S 6 9 30.09 1019 10 16 0.00 0.00
1:52 am 01:52 Mostly Cloudy 67 19.4 63 17.2 87 87 S 6 9 30.09 1019 10 16 0.00 0.00
2:52 am 02:52 Partly Cloudy 67 19.4 63 17.2 87 87 SSW 6 9 30.08 1019 10 16 0.00 0.00
3:52 am 03:52 Mostly Cloudy 65 18.3 63 17.2 93 93 S 5 7 30.07 1018 10 16 0.00 0.00
4:52 am 04:52 Mostly Cloudy 65 18.3 63 17.2 93 93 S 8 13 30.08 1019 10 16 0.00 0.00
5:52 am 05:52 Mostly Cloudy 66 18.9 63 17.2 90 90 S 7 11 30.07 1018 10 16 0.00 0.00
6:52 am 06:52 Mostly Cloudy 67 19.4 63 17.2 87 87 S 9 15 30.09 1019 10 16 0.00 0.00
8:52 am 08:52 Mostly Cloudy 72 22.2 64 17.8 76 76 S 15 24 30.10 1019 10 16 0.00 0.00
9:52 am 09:52 Partly Cloudy 74 23.3 65 18.3 74 74 S 13 20 30.09 1019 10 16 0.00 0.00
10:52 am 10:52 Partly Cloudy 78 25.6 65 18.3 64 64 S 12 19 30.06 1018 10 16 0.00 0.00
11:52 am 11:52 Partly Cloudy 81 27.2 66 18.9 61 61 S 17 28 30.05 1018 10 16 0.00 0.00
12:52 pm 12:52 Mostly Cloudy 80 26.7 66 18.9 62 62 S 14 22 30.04 1017 10 16 0.00 0.00
1:52 pm 13:52 Mostly Cloudy 83 28.3 67 19.4 59 59 SSW 14 22 30.01 1016 10 16 0.00 0.00
2:52 pm 14:52 Mostly Cloudy 82 27.8 69 20.6 65 65 S 17 28 29.99 1016 10 16 0.00 0.03
3:52 pm 15:52 Mostly Cloudy 80 26.7 69 20.6 69 69 SSE 20 31 29.96 1015 10 16 0.00 0.03
4:08 pm 16:08 Mostly Cloudy with Thunderstorms 79 26 68 20 70 70 S 15 24 29.97 1015 10 16 0.00 0.00
4:25 pm 16:25 Windy with Storms Likely 72 22 64 18 78 78 W 22 35 30.00 1016 10 16 0.00 0.03
4:39 pm 16:39 Cloudy with Strong Thunderstorms 70 21 64 18 83 83 SW 16 26 30.00 1016 2 2 0.06 1.52
4:52 pm 16:52 Cloudy with Thunderstorms 68 20 66 18.9 93 93 S 12 19 30.00 1016 3 5 0.36 9.14
5:10 pm 17:10 Cloudy 70 21 66 19 88 88 SW 7 11 29.97 1015 10 16 0.00 0.00
5:52 pm 17:52 Cloudy with Light Rain 73 22.8 68 20 84 84 SSW 10 17 29.98 1015 10 16 0.01 0.25
6:52 pm 18:52 Cloudy 72 22.2 69 20.6 91 91 S 8 13 29.98 1015 10 16 0.01 0.25
7:52 pm 19:52 Cloudy 71 21.7 69 20.6 94 94 SSW 6 9 29.98 1015 10 16 0.00 0.00
8:44 pm 20:44 Cloudy with Light Rain 72 22 68 20 88 88 S 8 13 30.00 1016 6 10 0.00 0.00
8:52 pm 20:52 Cloudy with Light Rain 71 21.7 68 20 90 90 S 15 24 30.00 1016 6 10 0.01 0.25
9:52 pm 21:52 Cloudy 68 20 65 18.3 90 90 S 7 11 30.00 1016 10 16 0.00 0.03
10:52 pm 22:52 Cloudy 67 19.4 65 18.3 93 93 SSW 8 13 30.01 1016 10 16 0.00 0.00
11:52 pm 23:52 Mostly Cloudy 67 19.4 65 18.3 93 93 SSW 9 15 30.01 1016 10 16 0.00 0.00

Powered by AerisWeather